Regional Weather Roundup
Issued by NWS

Home | Current Version | Previous Version | Graphics & Text | Print | Product List | Glossary On
Versions: 1 2 3 4 5 6 7 8 9 10 11 12 13 14 15 16 17 18 19 20 21 22 23 24 25 26 27 28 29 30 31 32 33 34 35 36 37 38 39 40 41 42 43 44 45 46 47 48 49 50
000
ASUS43 KMKX 052359
RWRWI

WISCONSIN REGIONAL WEATHER ROUNDUP
NATIONAL WEATHER SERVICE MILWAUKEE/SULLIVAN WI
600 PM CST THU MAR 05 2015

NOTE: "FAIR" INDICATES FEW OR NO CLOUDS BELOW 12,000 FEET WITH NO
SIGNIFICANT WEATHER AND/OR OBSTRUCTIONS TO VISIBILITY.

WIZ001-002-006>008-014>016-023>028-060100-
NORTHWEST WISCONSIN

CITY           SKY/WX    TMP DP  RH WIND       PRES   REMARKS
SUPERIOR ARPT  CLEAR     14  -5  43 SW10      30.33S WCI   1
ASHLAND        CLEAR     11 -10  38 SW9       30.33S WCI  -2
6HR MIN TEMP:   7; 6HR MAX TEMP:  15;

HAYWARD        CLEAR     10 -10  40 SW9       30.33S WCI  -3
6HR MIN TEMP:   4; 6HR MAX TEMP:  11;

SIREN          CLEAR     11  -6  45 SW8       30.37S WCI   0
CUMBERLAND     CLEAR      9  -6  52 S8        30.36S WCI  -4
RICE LAKE      CLEAR     10  -5  50 S8        30.40S WCI  -3
CHETEK         CLEAR     10  -6  49 SW6       30.39S WCI   0
LADYSMITH      CLEAR      9 -10  41 SW7       30.38S WCI  -2
6HR MIN TEMP:   6; 6HR MAX TEMP:  12;

EAU CLAIRE     NOT AVBL
MENOMONIE      CLEAR     11  -4  49 S6        30.42F WCI   2
NEW RICHMOND   CLEAR     12  -2  54 S9        30.40S WCI  -1
OSCEOLA        CLEAR     13  -2  49 SW7       30.42S WCI   3
$$

WIZ003>005-009-010-017-018-060100-
NORTH CENTRAL WISCONSIN

CITY           SKY/WX    TMP DP  RH WIND       PRES   REMARKS
MANITOWISH WTR CLEAR     11 -14  31 W6        30.27R WCI   1
ARBOR VITAE    CLEAR     11 -11  36 SW7       30.27S WCI   1
WOODRUFF       CLEAR     11 -11  36 SW7       30.27S WCI   1
RHINELANDER    CLEAR      8 -11  41 SW6       30.29S WCI  -2
6HR MIN TEMP:   7; 6HR MAX TEMP:  12;

EAGLE RIVER    CLEAR     10 -13  35 W9        30.26S WCI  -3
LAND O LAKES   CLEAR     12 -13  31 SW5       30.26R WCI   4
PHILLIPS       CLEAR      7 -12  41 SW8       30.31S WCI  -5
6HR MIN TEMP:   5; 6HR MAX TEMP:  10;

TOMAHAWK       CLEAR      9 -14  33 CALM      30.32S
MEDFORD        CLEAR      6 -10  47 SW7       30.34S WCI  -6
MERRILL        CLEAR      8  -9  47 SW8       30.35S WCI  -5
$$

WIZ029-030-035-036-043>047-060100-
CENTRAL WISCONSIN

CITY           SKY/WX    TMP DP  RH WIND       PRES   REMARKS
WAUSAU         CLEAR      7  -8  50 W6        30.36S WCI  -3
6HR MIN TEMP:   4; 6HR MAX TEMP:   9;

MOSINEE        CLEAR      9  -8  47 W7        30.38S WCI  -3
MARSHFIELD     CLEAR      9  -9  44 W6        30.38S WCI  -1
6HR MIN TEMP:   4; 6HR MAX TEMP:  11;

STEVENS POINT  CLEAR      9  -8  45 NW5       30.40S WCI   1
WAUPACA        CLEAR     16  -5  39 W5        30.42S WCI   9
WAUTOMA        NOT AVBL
WISC RAPIDS    CLEAR     12  -8  40 W7        30.42S WCI   1
6HR MIN TEMP:   8; 6HR MAX TEMP:  15;

CAMP DOUGLAS   NOT AVBL
$$

WIZ011>013-019>022-031-037>040-048>050-060100-
NORTHEAST WISCONSIN

CITY           SKY/WX    TMP DP  RH WIND       PRES   REMARKS
ANTIGO         CLEAR      5  -8  56 SW8       30.33R WCI  -8
SHAWANO        CLEAR     13  -7  39 SW8       30.41S WCI   2
OCONTO         CLEAR     13  -6  42 W9        30.40S WCI   0
STURGEON BAY   CLEAR     10  -6  48 SW9       30.41S WCI  -2
6HR MIN TEMP:   9; 6HR MAX TEMP:  12;

GREEN BAY      CLEAR     11  -5  48 W8        30.43R WCI  -1
6HR MIN TEMP:  10; 6HR MAX TEMP:  14;

MANITOWOC      NOT AVBL
APPLETON       CLEAR     12  -6  44 W9        30.41S WCI   0
CLINTONVILLE   CLEAR     12  -8  40 W6        30.41S WCI   3
OSHKOSH        CLEAR     13  -4  46 SW3       30.43R
6HR MIN TEMP:  11; 6HR MAX TEMP:  16;

$$

WIZ032>034-041-042-053>061-060100-
SOUTHWEST WISCONSIN

CITY           SKY/WX    TMP DP  RH WIND       PRES   REMARKS
LA CROSSE      CLEAR      9  -2  61 NW6       30.47S WCI  -1
6HR MIN TEMP:   9; 6HR MAX TEMP:  16; 6HR PCP: TRACE;

SPARTA         CLEAR     13  -6  43 W6        30.46S WCI   4
VIROQUA        CLEAR     10  -4  54 W6        30.42S WCI   0
BOSCOBEL       CLEAR     11  -4  51 SW9       30.51R WCI  -2
6HR MIN TEMP:  11; 6HR MAX TEMP:  16; 6HR PCP: TRACE;

PRAIRIE DU CHI CLEAR     10  -5  50 SW7       30.51S WCI  -1
PLATTEVILLE    CLEAR      9  -4  55 SW5       30.48R WCI   1
$$

WIZ056-057-062-063-064-067-068-060100-
SOUTH CENTRAL WISCONSIN

CITY           SKY/WX    TMP DP  RH WIND       PRES   REMARKS
REEDSBURG      CLEAR     13  -4  47 W7        30.45R WCI   2
BARABOO/DELLS  CLEAR     12  -6  44 CALM      30.44S
LONE ROCK      NOT AVBL
MINERAL POINT  CLEAR     12  -6  44 SW7       30.45S WCI   2
MADISON        CLEAR     13  -4  46 SW6       30.47R WCI   4
6HR MIN TEMP:  10; 6HR MAX TEMP:  16;

MIDDLETON      CLEAR     15  -5  40 SW9       30.46R WCI   3
WATERTOWN      CLEAR     13  -3  49 W6        30.46R WCI   4
MONROE         CLEAR     10  -2  56 W12       30.46S WCI  -4
JANESVILLE     CLEAR     10  -4  52 W8        30.50R WCI  -1
$$

WIZ051-052-058>065-066-070>072-060100-
SOUTHEAST WISCONSIN

CITY           SKY/WX    TMP DP  RH WIND       PRES   REMARKS
MILWAUKEE      CLEAR     14  -6  40 W7        30.49R WCI   4
6HR MIN TEMP:  12; 6HR MAX TEMP:  16;

WAUKESHA       CLEAR     10  -6  48 SW7       30.47R WCI   0
MILWAUKEE/TIMM NOT AVBL
RACINE         CLEAR     12  -6  44 W7        30.51R WCI   1
6HR MIN TEMP:  12; 6HR MAX TEMP:  15;

BURLINGTON     CLEAR      7  -6  54 SW7       30.49R WCI  -4
KENOSHA        CLEAR      7  -6  55 W7        30.49R WCI  -5
6HR MIN TEMP:   7; 6HR MAX TEMP:  13;

FOND DU LAC    CLEAR     13  -4  46 SW6       30.44R WCI   4
6HR MIN TEMP:  10; 6HR MAX TEMP:  15;

SHEBOYGAN      CLEAR      9  -4  55 SW8       30.45R WCI  -3
6HR MIN TEMP:   9; 6HR MAX TEMP:  14;

WEST BEND      CLEAR     14  -6  41 SW7       30.45R WCI   4
JUNEAU         CLEAR     12  -2  52 SW8       30.46R WCI   1
$$

LSZ147-162-060100-
LAKE SUPERIOR

STATION/POSITION TIME  TEMP    WIND        PRES    WAVE
                       AIR SEA DIR/SP/G            HT/PER
                 (UTC) (F)     (DEG/KT/KT) (MB)    (FT/S)
DEVILS ISLAND    2300   14     230/ 15/ 18 1027.7F
PORT WING        2340   15     210/ 10/ 15 1026.8F
SAXON HARBOR     2300   17     220/  8/ 14 1027.1F
$$

LMZ867-665-643>646-060100-
LAKE MICHIGAN

STATION/POSITION TIME  TEMP    WIND        PRES    WAVE
                       AIR SEA DIR/SP/G            HT/PER
                 (UTC) (F)     (DEG/KT/KT) (MB)    (FT/S)
NORTHPORT PIER   2319   14     190/  5/ 11 1028.8S
KEWAUNEE LAKESHO 2300   13     250/  8/ 12 1029.2F
SHEBOYGAN LAKESH 2300   15     280/  9/ 10 1032.8S
PORT WASHINGTON  2300   16     290/  7/ 11 1032.2S
MILWAUKEE LAKESH 2300   15     270/ 10/ 11   N/A
KENOSHA   LAKESH 2300   14     280/  7/ 10 1032.5R
$$

TC  - TEMPERATURE IN CELSIUS
VSB - VISIBILITY IN STATUTE MILES
WCI - WIND CHILL INDEX
HX  - HEAT INDEX




USA.gov is the U.S. government's official web portal to all federal, state and local government web resources and services.